{"data":{"norad_id":39427,"intl_designator":"2013-066M","name":"TRITON-1","alt_names":[],"object_type":"PAYLOAD","status":"ACTIVE","operator":null,"country":"UK","launch_date":"2013-11-21","launch_site_code":"DLS","launch_vehicle":null,"mission":null,"orbit_class":"UNKNOWN","rcs_meters":0.1199,"size_class":null,"mass_kg":null,"dimensions":null,"purposes":["tech_demo"],"wikipedia_slug":null,"has_3d_model":false,"image_url":null,"decayed_at":null,"tle_current":{"epoch":"2026-09-20T03:58:50.877696Z","epoch_age_seconds":43381,"freshness":"FRESH","line1":"1 39427U 13066M   26263.16586664  .00001558  00000+0  19037-3 0  9993","line2":"2 39427  97.8144 170.7800 0087864 285.1022  74.0484 14.82061504688152","mean_motion":14.82061504,"eccentricity":0.0087864,"inclination_deg":97.8144,"raan_deg":170.78,"arg_perigee_deg":285.1022,"mean_anomaly_deg":74.0484,"bstar":0.00019037,"rev_number":68815,"period_min":97.161959615949,"perigee_km":561.31126413368,"apogee_km":684.33776059819,"semimajor_km":7000.9615123659,"source":"CELESTRAK","updated_at":"2026-09-20T09:00:48.022696Z"}}}